Satellite-Ground Cal/Val Site Overpasses Predictions

Prediction of Satellite NPP Overpassing Cal/Val Site: Antarctic Dome C

Ground Cal/Val Site Location: Latitude: -75.10, Longitude: 123.35; Satellite-Ground Site NADIR distance within 100 km.

Table of predicted overpasses for the next 14.0 days since TLE Epoch: 5/31/2013
Interval Starting Time Ending Time Minimum Distance Time Minimum Distance (km)
1 05/31/2013 15:00:54 05/31/2013 15:01:17 05/31/2013 15:01:05 63.25
2 06/01/2013 14:42:03 06/01/2013 14:42:29 06/01/2013 14:42:16 46.09
3 06/02/2013 07:43:45 06/02/2013 07:44:06 06/02/2013 07:43:55 70.81
4 06/03/2013 07:24:52 06/03/2013 07:25:19 06/03/2013 07:25:06 37.14
5 06/06/2013 14:48:18 06/06/2013 14:48:47 06/06/2013 14:48:33 10.82
6 06/08/2013 07:31:07 06/08/2013 07:31:37 06/08/2013 07:31:22 1.12
7 06/11/2013 14:54:34 06/11/2013 14:55:02 06/11/2013 14:54:48 25.42
8 06/12/2013 14:35:51 06/12/2013 14:36:08 06/12/2013 14:35:59 81.71
9 06/13/2013 07:37:25 06/13/2013 07:37:52 06/13/2013 07:37:38 34.94
